Location: El Álamo
(40.2307°N, 3.9945°W)
Time: 04:25:51
(UTC+00:00)

Gbstr 26 Del rocket - Pass Details

Date: 19 May 2025
Orbit: 490 x 1223 km, 51.8° (Epoch: 23 June)

Event Time Altitude Azimuth Distance (km) Brightness Sun altitude
Rises 20:10:34 0° 305° (NW) 3,577 9.6 -7.6°
Reaches altitude 10° 20:13:24 10° 303° (WNW) 2,506 7.9 -8.1°
Maximum altitude 20:19:07 63° 224° (SW) 817 3.7 -9.0°
Enters shadow 20:23:28 12° 143° (SE) 1,935 5.0 -9.6°
